Tracking 20945 objects as of 8-Jul-2020
HD Live streaming from Space Station
objects crossing your sky now

SL-16 R/B

Track SL-16 R/B now!
10-day predictions
SL-16 R/B is classified as:


NORAD ID: 23705
Int'l Code: 1995-058B
Perigee: 840.8 km
Apogee: 857.2 km
Inclination: 71.0 °
Period: 101.8 minutes
Semi major axis: 7219 km
RCS: 9.8957 m2 (large)
Launch date: October 31, 1995
Source: Commonwealth of Independent States (former USSR) (CIS)
Launch site: TYURATAM MISSILE AND SPACE COMPLEX (TTMTR)

Note: This is a ROCKET BODY
aabbcc
Your satellite tracking list
Your tracking list is empty




NASA's NSSDC Master Catalog

Two Line Element Set (TLE):
1 23705U 95058B   20190.43976388  .00000147  00000-0  10003-3 0  9993
2 23705  71.0193 204.9210 0011362  26.4796 333.6905 14.15136245275246
Source of the keplerian elements: AFSPC